EW4498 Weather Reports


time (UTC)temp
F
wind
direction
speed
knots
gust
knots
rain 1hr
in
rain 24hr
in
rain mn
in
humidity
%
barometer
mb
20260505111527 57 47 4.3 9.6 0.00 0.00 0.00 57 1011.1
20260505101526 56 324 1.7 11.3 0.00 0.00 0.00 58 1011.3
20260505100022 56 22 1.7 7.8 0.00 0.00 0.00 60 1011.4
20260505094525 56 317 5.2 9.6 0.00 0.01 0.00 57 1011.5
20260505093015 54 26 2.6 9.6 0.00 0.01 0.00 63 1011.5
20260505091512 52 320 4.3 8.7 0.00 0.01 0.00 64 1011.6
20260505090011 53 63 4.3 11.3 0.00 0.01 0.00 63 1011.6
20260505084509 53 5 3.5 8.7 0.00 0.01 0.00 63 1011.6
20260505083008 55 54 1.7 4.3 0.00 0.01 0.00 62 1011.5
20260505081506 52 304 2.6 8.7 0.00 0.01 0.00 65 1011.6
20260505080005 53 22 2.6 7.8 0.00 0.01 0.00 63 1011.5
20260505074503 54 355 3.5 8.7 0.00 0.01 0.00 62 1011.6
20260505073001 52 313 1.7 4.3 0.00 0.01 0.00 67 1011.5
20260505071600 51 346 2.6 7.0 0.00 0.01 0.00 70 1011.5
20260505070100 51 32 2.6 7.8 0.00 0.01 0.00 69 1011.5
20260505064600 52 335 5.2 8.7 0.00 0.01 0.00 67 1011.4
20260505063113 52 333 3.5 9.6 0.00 0.01 0.00 69 1011.4
20260505061555 52 324 1.7 10.4 0.00 0.01 0.00 73 1011.3
20260505060053 51 325 4.3 10.4 0.00 0.01 0.00 72 1011.4
20260505054554 51 355 3.5 7.8 0.00 0.01 0.00 72 1011.2
20260505053054 51 327 0.9 5.2 0.00 0.01 0.00 74 1011.3
20260505051540 50 325 1.7 7.8 0.00 0.01 0.00 76 1011.3
20260505041537 45 302 0.0 0.9 0.00 0.01 0.00 84 1011.2
20260505040033 45 301 0.0 1.7 0.00 0.01 0.00 84 1011.2
20260505034524 45 301 0.0 1.7 0.00 0.01 0.00 84 1011.3
20260505033020 45 311 0.0 0.0 0.00 0.01 0.00 84 1011.4
20260505031533 44 313 0.0 0.0 0.00 0.01 0.00 84 1011.4
20260505030017 44 313 0.0 0.9 0.00 0.01 0.00 84 1011.3
20260505024516 45 313 0.0 1.7 0.00 0.01 0.00 83 1011.4
20260505023015 45 315 0.0 2.6 0.00 0.01 0.00 83 1011.3
20260505021513 45 278 0.0 2.6 0.00 0.01 0.00 83 1011.5
20260505020013 45 336 0.0 3.5 0.00 0.01 0.00 82 1011.4
20260505014512 45 332 0.9 7.0 0.00 0.01 0.00 82 1011.4
20260505013011 45 330 0.9 4.3 0.00 0.01 0.00 82 1011.4
20260505011509 45 322 0.0 4.3 0.00 0.01 0.00 83 1011.5
20260505010007 45 341 0.9 4.3 0.00 0.01 0.00 84 1011.5
20260505004506 45 294 0.0 4.3 0.00 0.01 0.00 84 1011.7
20260505003006 45 322 0.0 3.5 0.00 0.01 0.00 84 1011.6
20260505001504 44 313 0.0 2.6 0.00 0.01 0.00 85 1011.6
20260505000001 45 340 0.0 0.0 0.00 0.01 0.00 84 1011.7
20260504234600 45 340 0.0 0.9 0.00 0.02 0.00 82 1011.7
20260504233111 47 340 0.0 1.7 0.00 0.02 0.00 80 1011.7
20260504231601 47 342 0.0 5.2 0.00 0.02 0.00 81 1011.7
20260504230057 47 337 1.7 3.5 0.00 0.02 0.00 81 1011.8
20260504224602 47 313 1.7 5.2 0.00 0.09 0.00 82 1011.7
20260504223112 45 294 0.0 2.6 0.00 0.09 0.00 81 1011.8
20260504221549 45 266 0.0 0.0 0.00 0.09 0.00 79 1011.6
20260504220048 45 267 0.0 0.9 0.00 0.09 0.00 79 1011.8
20260504214546 45 267 0.0 0.9 0.00 0.14 0.09 77 1011.8
20260504213054 46 267 0.0 0.9 0.00 0.14 0.09 77 1011.8
20260504211541 46 267 0.0 0.9 0.00 0.14 0.09 76 1011.8
20260504210041 47 267 0.0 0.9 0.00 0.14 0.09 75 1011.8
20260504204545 47 266 0.0 0.9 0.00 0.28 0.09 76 1011.7
20260504203044 47 267 0.0 0.0 0.00 0.28 0.09 76 1011.7
20260504201601 48 266 0.0 0.0 0.00 0.28 0.09 76 1011.7
20260504200038 48 267 0.0 0.0 0.00 0.28 0.09 73 1011.7
20260504194640 50 267 0.0 0.0 0.00 0.33 0.09 70 1011.5
20260504193048 51 267 0.0 0.0 0.00 0.33 0.09 68 1011.6
20260504191543 52 266 0.0 0.0 0.00 0.33 0.09 65 1011.4
20260504190147 53 267 0.0 0.9 0.00 0.33 0.09 62 1011.4
20260504184600 54 266 0.0 1.7 0.00 0.33 0.09 59 1011.4
20260504183155 55 233 0.0 3.5 0.00 0.33 0.09 58 1011.3
20260504181556 56 254 0.0 3.5 0.00 0.33 0.09 58 1011.2
20260504180154 56 251 0.0 4.3 0.00 0.33 0.09 56 1011.1
20260504174619 57 211 0.0 6.1 0.00 0.33 0.09 52 1011.0
20260504173042 57 287 0.9 5.2 0.00 0.33 0.09 47 1011.0
20260504171540 58 242 0.9 7.8 0.00 0.33 0.09 43 1011.1
20260504170141 58 305 2.6 8.7 0.00 0.33 0.09 40 1011.2
20260504150117 62 298 0.9 8.7 0.00 0.33 0.09 39 1011.1